398P/Boattini (2020)

Japanese version
Home page
Updated on October 17, 2020

---------------------------------------------------------------------

* Profile

Designation 398P/2020 P2
Recovery Date August 11, 2020
Magnitude 19.1 mag
Recoverer N. Erasmus (Asteroid Terrestrial-Impact Last Alert System (ATLAS) search program)

* Pictures

* Orbital Elements

Epoch 2020 Dec. 17.0 TT = JDT 2459200.5                                         
T 2020 Dec. 26.74677 TT                                 Rudenko                 
q   1.3056813            (2000.0)            P               Q                  
n   0.17815125     Peri.  320.23586     +0.03078682     -0.98795290             
a   3.1280724      Node   127.46363     +0.95878050     -0.01369138             
e   0.5825924      Incl.   11.01536     +0.28247499     +0.15414800             
P   5.53                                                                        
From 813 observations 2009 Aug. 26-2020 Aug. 22, mean residual 0".6.            

* Finding Charts

* Magnitudes Graph

        m1 = 12.0 + 5 log d + 20.0 log r

---------------------------------------------------------------------

The orbital elements are published on M.P.E.C. 2020-Q184.
The charts are made with StellaNavigator Ver.10 (AstroArts).
The magnitudes graphs are made with Comet for Windows.

---------------------------------------------------------------------

Copyright(C) Seiichi Yoshida (comet@aerith.net). All rights reserved.